Location: Gleizolles
(44.4833°N, 6.7667°E)
Time: 15:50:31
(UTC+00:00)

Tiros 1 - Pass Details

Date: 25 June 2024
Orbit: 624 x 656 km, 48.4° (Epoch: 13 July)

Event Time Altitude Azimuth Distance (km) Brightness Sun altitude
Rises 20:53:26 0° 197° (SSW) 2,888 - -12.7°
Reaches altitude 10° 20:56:21 10° 178° (S) 1,985 - -13.0°
Maximum altitude 20:59:23 18° 136° (SE) 1,546 - -13.3°
Exits shadow 21:01:38 13° 102° (ESE) 1,803 9.0 -13.6°
Drops below altitude 10° 21:02:26 10° 94° (E) 1,994 9.3 -13.6°
Sets 21:05:23 0° 75° (ENE) 2,908 10.3 -14.0°
